Location: Altleiningen
(49.5078°N, 8.0741°E)
Time: 11:35:14
(UTC+00:00)

Cosmos 1898 Rocket - Visible Passes

Search period start: 12 June 2021 00:00
Search period end: 22 June 2021 00:00
Orbit: 753 x 784 km, 74.0° (Epoch: 11 June)

Date Brightness Start Highest point End Pass type
(mag) Time Alt. Az. Time Alt. Az. Time Alt. Az.
12 Jun 5.7 00:17:25 10° N 00:21:44 25° NE 00:26:00 10° ESE visible
12 Jun 3.5 01:59:03 10° NNW 02:04:16 63° WSW 02:09:24 10° S visible
12 Jun 6.1 23:40:55 10° N 23:44:25 18° NE 23:47:54 10° E visible
13 Jun 3.6 01:22:04 10° NNW 01:27:23 83° ENE 01:32:36 10° SSE visible
13 Jun 6.3 23:04:45 10° NNE 23:06:59 13° NE 23:09:14 10° ENE visible
14 Jun 4.2 00:45:12 10° NNW 00:50:23 54° ENE 00:55:29 10° SE visible
14 Jun 4.6 02:27:54 10° NW 02:32:07 25° W 02:36:18 10° SSW visible
15 Jun 4.9 00:08:26 10° N 00:13:17 35° NE 00:18:04 10° ESE visible
15 Jun 4.0 01:50:32 10° NW 01:55:25 40° WSW 02:00:14 10° S visible
15 Jun 5.5 23:31:48 10° N 23:36:05 24° NE 23:40:19 10° ESE visible
16 Jun 3.5 01:13:25 10° NNW 01:18:38 64° WSW 01:23:23 12° S visible
16 Jun 6.0 22:55:18 10° N 22:58:46 17° NE 23:02:12 10° E visible
17 Jun 3.5 00:36:26 10° NNW 00:41:44 82° ENE 00:46:24 13° SSE visible
17 Jun 5.2 02:20:01 10° WNW 02:23:05 16° W 02:26:08 10° SW visible
17 Jun 6.1 22:19:10 10° NNE 22:21:20 12° NE 22:23:29 10° ENE visible
17 Jun 4.2 23:59:34 10° NNW 00:04:44 53° ENE 00:09:31 12° SE visible
18 Jun 4.7 01:42:15 10° NW 01:46:29 25° W 01:49:44 14° SW visible
18 Jun 4.9 23:22:49 10° N 23:27:38 35° NE 23:32:23 10° ESE visible
19 Jun 4.1 01:04:54 10° NW 01:09:47 40° WSW 01:12:55 20° SSW visible
19 Jun 5.4 22:46:10 10° N 22:50:25 24° NE 22:54:37 10° ESE visible
20 Jun 3.5 00:27:47 10° NNW 00:32:59 65° WSW 00:36:10 23° S visible
20 Jun 5.8 22:09:41 10° N 22:13:06 17° NE 22:16:29 10° E visible
20 Jun 3.5 23:50:48 10° NNW 23:56:05 81° ENE 23:59:29 22° SSE visible
21 Jun 5.2 01:34:20 10° WNW 01:37:27 16° W 01:39:44 12° WSW visible
21 Jun 6.0 21:33:35 10° NNE 21:35:41 12° NE 21:37:46 10° ENE visible
21 Jun 4.1 23:13:57 10° NNW 23:19:05 52° ENE 23:22:50 18° SE visible
